ROMMA est une association bénévole à but non lucratif. Votre soutien est indispensable : ADHERER à ROMMA ou FAIRE un DON

Die - (26, Drôme)

Diois (400 m)   Longitude: 5° 21' 55"E   Latitude: 44° 45' 16"N Station partenaire n°159
 

Détail journalier du     <<     >>

Température Precipitation Humidité Pression Vent Dir Rafale Dir. rafale Ensol.
Heure (°C) (mm) (%) (hPa) (km/h) (km/h) (min)
01:00 -3.0093103402N0
02:00 -3.2094103302N0
03:00 -3.3093103302N0
04:00 -3.6094103302N0
05:00 -4.1094103300N0
06:00 -4.3093103303N0
07:00 -4.2094103302N0
08:00 -4.309410341N3N0
09:00 -4.6094103402N0
10:00 -2.3095103403N30
11:00 0.408910341N3N60
12:00 3.208110342SO5SO60
13:00 6.207210322SO5SO60
14:00 8.406310312SO5SO60
15:00 8.106410303SSO5OSO60
16:00 3.8079103005SSO0
17:00 2.3086103002SSO0
18:00 1.1090103103SSO0
19:00 0.8091103103SSO0
20:00 0.1091103203SSO0
21:00 -0.509210321SSO3SSO0
22:00 -1.009310331SSO3SSO0
23:00 -1.7093103203SSO0
minuit -2.1094103205SSO0

Graphique du 06-01-2020

 

Serveur OMMA